Time,TemperatureF,DewpointF,PressureIn,WindDirection,WindDirectionDegrees,WindSpeedMPH,WindSpeedGustMPH,Humidity,HourlyPrecipIn,Conditions,Clouds,dailyrainin,SoftwareType,DateUTC
2013-02-26 00:01:00,25.9,16.1,30.11,ENE,68,2.0,2.0,66,0.00,,,0.00,Wunderground v.1.15,2013-02-26 07:01:00,
2013-02-26 00:07:00,25.6,15.8,30.11,ENE,66,2.0,2.0,66,0.00,,,0.00,Wunderground v.1.15,2013-02-26 07:07:00,
2013-02-26 00:12:00,25.1,15.7,30.10,ENE,66,2.0,2.0,67,0.00,,,0.00,Wunderground v.1.15,2013-02-26 07:12:00,
2013-02-26 00:18:00,25.1,15.3,30.11,ENE,66,2.0,2.0,66,0.00,,,0.00,Wunderground v.1.15,2013-02-26 07:18:00,
2013-02-26 00:24:00,25.4,14.9,30.11,ENE,67,1.0,2.0,64,0.00,,,0.00,Wunderground v.1.15,2013-02-26 07:24:00,
2013-02-26 00:30:00,25.1,15.0,30.11,ENE,63,2.0,2.0,65,0.00,,,0.00,Wunderground v.1.15,2013-02-26 07:30:00,
2013-02-26 00:35:00,25.1,15.3,30.11,ENE,71,2.0,2.0,66,0.00,,,0.00,Wunderground v.1.15,2013-02-26 07:35:00,
2013-02-26 00:40:00,25.1,15.3,30.11,ENE,69,1.0,2.0,66,0.00,,,0.00,Wunderground v.1.15,2013-02-26 07:40:00,
2013-02-26 00:46:00,25.2,15.1,30.10,ENE,72,2.0,2.0,65,0.00,,,0.00,Wunderground v.1.15,2013-02-26 07:46:00,
2013-02-26 00:51:00,25.1,15.0,30.10,ENE,66,2.0,2.0,65,0.00,,,0.00,Wunderground v.1.15,2013-02-26 07:51:00,
2013-02-26 00:57:00,25.1,15.0,30.10,ENE,66,2.0,2.0,65,0.00,,,0.00,Wunderground v.1.15,2013-02-26 07:57:00,
2013-02-26 01:02:00,25.0,15.2,30.10,ENE,65,2.0,2.0,66,0.00,,,0.00,Wunderground v.1.15,2013-02-26 08:02:00,
2013-02-26 01:07:00,25.1,15.0,30.10,ENE,65,1.0,2.0,65,0.00,,,0.00,Wunderground v.1.15,2013-02-26 08:07:00,
2013-02-26 01:13:00,25.3,14.8,30.10,ENE,65,2.0,2.0,64,0.00,,,0.00,Wunderground v.1.15,2013-02-26 08:13:00,
2013-02-26 01:18:00,25.0,14.5,30.10,ENE,58,2.0,3.0,64,0.00,,,0.00,Wunderground v.1.15,2013-02-26 08:18:00,
2013-02-26 01:23:00,24.8,14.7,30.09,ENE,62,2.0,3.0,65,0.00,,,0.00,Wunderground v.1.15,2013-02-26 08:23:00,
2013-02-26 01:29:00,24.7,14.9,30.09,ENE,63,1.0,3.0,66,0.00,,,0.00,Wunderground v.1.15,2013-02-26 08:29:00,
2013-02-26 01:34:00,24.3,15.3,30.08,ENE,63,2.0,2.0,68,0.00,,,0.00,Wunderground v.1.15,2013-02-26 08:34:00,
2013-02-26 01:40:00,24.1,15.4,30.08,ENE,62,2.0,2.0,69,0.00,,,0.00,Wunderground v.1.15,2013-02-26 08:40:00,
2013-02-26 01:45:00,24.0,16.0,30.08,ENE,62,2.0,2.0,71,0.00,,,0.00,Wunderground v.1.15,2013-02-26 08:45:00,
2013-02-26 01:51:00,23.9,15.9,30.07,ENE,63,3.0,3.0,71,0.00,,,0.00,Wunderground v.1.15,2013-02-26 08:51:00,
2013-02-26 01:56:00,24.3,15.9,30.07,ENE,62,2.0,3.0,70,0.00,,,0.00,Wunderground v.1.15,2013-02-26 08:56:00,
2013-02-26 02:01:00,24.8,16.1,30.07,ENE,63,2.0,2.0,69,0.00,,,0.00,Wunderground v.1.15,2013-02-26 09:01:00,
2013-02-26 02:06:00,25.1,15.7,30.07,ENE,63,2.0,3.0,67,0.00,,,0.00,Wunderground v.1.15,2013-02-26 09:06:00,
2013-02-26 02:11:00,24.8,15.4,30.07,ENE,62,2.0,2.0,67,0.00,,,0.00,Wunderground v.1.15,2013-02-26 09:11:00,
2013-02-26 02:16:00,24.6,15.2,30.07,ENE,63,2.0,2.0,67,0.00,,,0.00,Wunderground v.1.15,2013-02-26 09:16:00,
2013-02-26 02:21:00,25.1,15.3,30.07,ENE,63,2.0,2.0,66,0.00,,,0.00,Wunderground v.1.15,2013-02-26 09:21:00,
2013-02-26 02:26:00,25.6,15.5,30.07,NE,56,2.0,2.0,65,0.00,,,0.00,Wunderground v.1.15,2013-02-26 09:26:00,
2013-02-26 02:31:00,26.4,15.5,30.07,NE,34,2.0,3.0,63,0.00,,,0.00,Wunderground v.1.15,2013-02-26 09:31:00,
2013-02-26 02:36:00,27.0,15.7,30.08,NE,39,2.0,3.0,62,0.00,,,0.00,Wunderground v.1.15,2013-02-26 09:36:00,
2013-02-26 02:41:00,27.5,15.8,30.07,NE,37,2.0,2.0,61,0.00,,,0.00,Wunderground v.1.15,2013-02-26 09:41:00,
2013-02-26 02:46:00,27.9,16.2,30.07,NE,37,1.0,2.0,61,0.00,,,0.00,Wunderground v.1.15,2013-02-26 09:46:00,
2013-02-26 02:51:00,27.7,16.0,30.06,ENE,66,2.0,2.0,61,0.00,,,0.00,Wunderground v.1.15,2013-02-26 09:51:00,
2013-02-26 02:56:00,27.3,16.0,30.06,ENE,66,2.0,2.0,62,0.00,,,0.00,Wunderground v.1.15,2013-02-26 09:56:00,
2013-02-26 03:01:00,26.7,16.1,30.06,ENE,66,2.0,2.0,64,0.00,,,0.00,Wunderground v.1.15,2013-02-26 10:01:00,
2013-02-26 03:06:00,26.7,16.5,30.06,ENE,58,2.0,2.0,65,0.00,,,0.00,Wunderground v.1.15,2013-02-26 10:06:00,
2013-02-26 03:11:00,27.8,16.5,30.06,NE,34,2.0,2.0,62,0.00,,,0.00,Wunderground v.1.15,2013-02-26 10:11:00,
2013-02-26 03:16:00,28.5,16.4,30.05,NE,34,3.0,3.0,60,0.00,,,0.00,Wunderground v.1.15,2013-02-26 10:16:00,
2013-02-26 03:21:00,28.9,16.4,30.05,NNE,29,2.0,2.0,59,0.00,,,0.00,Wunderground v.1.15,2013-02-26 10:21:00,
2013-02-26 03:26:00,29.3,16.3,30.05,NNE,30,1.0,3.0,58,0.00,,,0.00,Wunderground v.1.15,2013-02-26 10:26:00,
2013-02-26 03:31:00,29.3,15.9,30.05,NNE,17,2.0,3.0,57,0.00,,,0.00,Wunderground v.1.15,2013-02-26 10:31:00,
2013-02-26 03:36:00,29.2,15.8,30.05,North,4,2.0,3.0,57,0.00,,,0.00,Wunderground v.1.15,2013-02-26 10:36:00,
2013-02-26 03:41:00,29.2,16.2,30.05,North,6,2.0,3.0,58,0.00,,,0.00,Wunderground v.1.15,2013-02-26 10:41:00,
2013-02-26 03:46:00,29.3,16.3,30.05,NNE,12,2.0,3.0,58,0.00,,,0.00,Wunderground v.1.15,2013-02-26 10:46:00,
2013-02-26 03:51:00,29.5,16.1,30.05,NNE,17,2.0,3.0,57,0.00,,,0.00,Wunderground v.1.15,2013-02-26 10:51:00,
2013-02-26 03:56:00,29.6,16.2,30.05,NNE,18,2.0,3.0,57,0.00,,,0.00,Wunderground v.1.15,2013-02-26 10:56:00,
2013-02-26 04:01:00,29.6,15.8,30.05,NNE,15,2.0,3.0,56,0.00,,,0.00,Wunderground v.1.15,2013-02-26 11:01:00,
2013-02-26 04:06:00,29.7,15.9,30.05,NNE,21,1.0,3.0,56,0.00,,,0.00,Wunderground v.1.15,2013-02-26 11:06:00,
2013-02-26 04:11:00,30.0,15.8,30.05,NNE,25,1.0,2.0,55,0.00,,,0.00,Wunderground v.1.15,2013-02-26 11:11:00,
2013-02-26 04:16:00,30.2,15.5,30.04,NNE,26,1.0,2.0,54,0.00,,,0.00,Wunderground v.1.15,2013-02-26 11:16:00,
2013-02-26 04:21:00,30.4,15.3,30.04,NNE,25,1.0,2.0,53,0.00,,,0.00,Wunderground v.1.15,2013-02-26 11:21:00,
2013-02-26 04:26:00,30.5,14.9,30.04,NNE,27,1.0,2.0,52,0.00,,,0.00,Wunderground v.1.15,2013-02-26 11:26:00,
2013-02-26 04:31:00,30.4,15.3,30.04,NNE,27,1.0,1.0,53,0.00,,,0.00,Wunderground v.1.15,2013-02-26 11:31:00,
2013-02-26 04:36:00,30.0,14.9,30.04,NNE,27,0.0,1.0,53,0.00,,,0.00,Wunderground v.1.15,2013-02-26 11:36:00,
2013-02-26 04:41:00,30.0,14.9,30.04,NNE,27,0.0,1.0,53,0.00,,,0.00,Wunderground v.1.15,2013-02-26 11:41:00,
2013-02-26 04:46:00,29.8,14.7,30.04,NNE,27,0.0,1.0,53,0.00,,,0.00,Wunderground v.1.15,2013-02-26 11:46:00,
2013-02-26 04:51:00,29.7,14.6,30.04,NNE,27,0.0,0.0,53,0.00,,,0.00,Wunderground v.1.15,2013-02-26 11:51:00,
2013-02-26 04:56:00,29.8,14.7,30.04,NE,42,0.0,0.0,53,0.00,,,0.00,Wunderground v.1.15,2013-02-26 11:56:00,
2013-02-26 05:01:00,28.4,14.3,30.04,NE,43,0.0,0.0,55,0.00,,,0.00,Wunderground v.1.15,2013-02-26 12:01:00,
2013-02-26 05:06:00,28.1,14.4,30.04,NE,43,0.0,0.0,56,0.00,,,0.00,Wunderground v.1.15,2013-02-26 12:06:00,
2013-02-26 05:11:00,27.5,14.2,30.04,NE,43,0.0,0.0,57,0.00,,,0.00,Wunderground v.1.15,2013-02-26 12:11:00,
2013-02-26 05:16:00,27.3,14.5,30.04,NE,43,0.0,0.0,58,0.00,,,0.00,Wunderground v.1.15,2013-02-26 12:16:00,
2013-02-26 05:21:00,27.1,14.3,30.05,NE,54,0.0,0.0,58,0.00,,,0.00,Wunderground v.1.15,2013-02-26 12:21:00,
2013-02-26 05:26:00,27.4,14.5,30.05,NE,54,0.0,0.0,58,0.00,,,0.00,Wunderground v.1.15,2013-02-26 12:26:00,
2013-02-26 05:31:00,26.1,14.1,30.04,NE,54,1.0,2.0,60,0.00,,,0.00,Wunderground v.1.15,2013-02-26 12:31:00,
2013-02-26 05:36:00,25.3,14.5,30.04,NE,54,2.0,2.0,63,0.00,,,0.00,Wunderground v.1.15,2013-02-26 12:36:00,
2013-02-26 05:41:00,23.7,14.0,30.04,NE,53,2.0,2.0,66,0.00,,,0.00,Wunderground v.1.15,2013-02-26 12:41:00,
2013-02-26 05:46:00,22.6,14.3,30.04,ENE,58,2.0,3.0,70,0.00,,,0.00,Wunderground v.1.15,2013-02-26 12:46:00,
2013-02-26 05:51:00,22.4,14.4,30.04,ENE,60,2.0,2.0,71,0.00,,,0.00,Wunderground v.1.15,2013-02-26 12:51:00,
2013-02-26 05:56:00,22.2,14.2,30.04,ENE,61,2.0,2.0,71,0.00,,,0.00,Wunderground v.1.15,2013-02-26 12:56:00,
2013-02-26 06:01:00,21.9,14.6,30.04,ENE,73,1.0,2.0,73,0.00,,,0.00,Wunderground v.1.15,2013-02-26 13:01:00,
2013-02-26 06:06:00,21.8,14.5,30.04,ENE,72,1.0,2.0,73,0.00,,,0.00,Wunderground v.1.15,2013-02-26 13:06:00,
2013-02-26 06:11:00,21.7,14.4,30.04,ENE,71,2.0,2.0,73,0.00,,,0.00,Wunderground v.1.15,2013-02-26 13:11:00,
2013-02-26 06:16:00,21.8,14.2,30.04,ENE,70,2.0,2.0,72,0.00,,,0.00,Wunderground v.1.15,2013-02-26 13:16:00,
2013-02-26 06:21:00,22.1,14.4,30.05,ENE,66,2.0,3.0,72,0.00,,,0.00,Wunderground v.1.15,2013-02-26 13:21:00,
2013-02-26 06:26:00,22.6,14.3,30.04,ENE,67,2.0,3.0,70,0.00,,,0.00,Wunderground v.1.15,2013-02-26 13:26:00,
2013-02-26 06:31:00,22.5,13.9,30.04,ENE,63,2.0,3.0,69,0.00,,,0.00,Wunderground v.1.15,2013-02-26 13:31:00,
2013-02-26 06:36:00,22.3,13.7,30.04,ENE,63,2.0,3.0,69,0.00,,,0.00,Wunderground v.1.15,2013-02-26 13:36:00,
2013-02-26 06:41:00,22.0,13.7,30.04,ENE,64,2.0,2.0,70,0.00,,,0.00,Wunderground v.1.15,2013-02-26 13:41:00,
2013-02-26 06:46:00,22.2,13.6,30.03,ENE,70,1.0,3.0,69,0.00,,,0.00,Wunderground v.1.15,2013-02-26 13:46:00,
2013-02-26 06:51:00,22.2,13.2,30.03,ENE,70,1.0,2.0,68,0.00,,,0.00,Wunderground v.1.15,2013-02-26 13:51:00,
2013-02-26 06:56:00,22.0,13.4,30.04,ENE,70,2.0,3.0,69,0.00,,,0.00,Wunderground v.1.15,2013-02-26 13:56:00,
2013-02-26 07:01:00,21.9,13.6,30.04,ENE,61,2.0,2.0,70,0.00,,,0.00,Wunderground v.1.15,2013-02-26 14:01:00,
2013-02-26 07:06:00,21.9,13.6,30.04,ENE,61,2.0,2.0,70,0.00,,,0.00,Wunderground v.1.15,2013-02-26 14:06:00,
2013-02-26 07:11:00,22.3,14.0,30.04,ENE,61,2.0,2.0,70,0.00,,,0.00,Wunderground v.1.15,2013-02-26 14:11:00,
2013-02-26 07:16:00,23.2,14.2,30.05,ENE,63,2.0,2.0,68,0.00,,,0.00,Wunderground v.1.15,2013-02-26 14:16:00,
2013-02-26 07:21:00,24.1,15.1,30.05,ENE,64,2.0,2.0,68,0.00,,,0.00,Wunderground v.1.15,2013-02-26 14:21:00,
2013-02-26 07:26:00,24.8,16.1,30.05,ENE,63,2.0,2.0,69,0.00,,,0.00,Wunderground v.1.15,2013-02-26 14:26:00,
2013-02-26 07:31:00,26.0,17.2,30.05,ENE,63,0.0,2.0,69,0.00,,,0.00,Wunderground v.1.15,2013-02-26 14:31:00,
2013-02-26 07:36:00,27.4,18.6,30.05,ENE,63,0.0,2.0,69,0.00,,,0.00,Wunderground v.1.15,2013-02-26 14:36:00,
2013-02-26 07:41:00,29.1,19.8,30.05,ENE,62,0.0,0.0,68,0.00,,,0.00,Wunderground v.1.15,2013-02-26 14:41:00,
2013-02-26 07:46:00,30.8,19.7,30.05,ENE,62,0.0,0.0,63,0.00,,,0.00,Wunderground v.1.15,2013-02-26 14:46:00,
2013-02-26 07:51:00,32.3,20.3,30.05,ENE,62,0.0,0.0,61,0.00,,,0.00,Wunderground v.1.15,2013-02-26 14:51:00,
2013-02-26 07:56:00,33.8,19.7,30.05,ENE,62,0.0,0.0,56,0.00,,,0.00,Wunderground v.1.15,2013-02-26 14:56:00,
2013-02-26 08:01:00,35.0,18.7,30.05,ENE,67,0.0,0.0,51,0.00,,,0.00,Wunderground v.1.15,2013-02-26 15:01:00,
2013-02-26 08:06:00,36.1,18.3,30.05,ENE,77,0.0,0.0,48,0.00,,,0.00,Wunderground v.1.15,2013-02-26 15:06:00,
2013-02-26 08:11:00,37.3,19.4,30.05,ENE,77,0.0,0.0,48,0.00,,,0.00,Wunderground v.1.15,2013-02-26 15:11:00,
2013-02-26 08:16:00,38.4,18.4,30.05,ENE,77,0.0,0.0,44,0.00,,,0.00,Wunderground v.1.15,2013-02-26 15:16:00,
2013-02-26 08:21:00,40.1,18.8,30.05,ENE,78,0.0,0.0,42,0.00,,,0.00,Wunderground v.1.15,2013-02-26 15:21:00,
2013-02-26 08:26:00,42.2,19.0,30.05,ENE,77,0.0,0.0,39,0.00,,,0.00,Wunderground v.1.15,2013-02-26 15:26:00,
2013-02-26 08:31:00,43.4,19.5,30.05,ENE,78,0.0,0.0,38,0.00,,,0.00,Wunderground v.1.15,2013-02-26 15:31:00,
2013-02-26 08:36:00,43.2,17.4,30.06,NNW,339,0.0,0.0,35,0.00,,,0.00,Wunderground v.1.15,2013-02-26 15:36:00,
2013-02-26 08:41:00,42.6,18.7,30.06,NNW,345,0.0,0.0,38,0.00,,,0.00,Wunderground v.1.15,2013-02-26 15:41:00,
2013-02-26 08:46:00,42.4,17.3,30.05,North,11,0.0,0.0,36,0.00,,,0.00,Wunderground v.1.15,2013-02-26 15:46:00,
2013-02-26 08:51:00,42.8,16.3,30.06,WNW,283,0.0,0.0,34,0.00,,,0.00,Wunderground v.1.15,2013-02-26 15:51:00,
2013-02-26 08:56:00,42.8,17.0,30.06,WSW,242,0.0,0.0,35,0.00,,,0.00,Wunderground v.1.15,2013-02-26 15:56:00,
2013-02-26 09:01:00,43.1,16.6,30.06,West,262,0.0,0.0,34,0.00,,,0.00,Wunderground v.1.15,2013-02-26 16:01:00,
2013-02-26 09:06:00,43.4,16.9,30.06,WSW,239,0.0,0.0,34,0.00,,,0.00,Wunderground v.1.15,2013-02-26 16:06:00,
2013-02-26 09:11:00,44.0,16.7,30.05,WSW,237,0.0,0.0,33,0.00,,,0.00,Wunderground v.1.15,2013-02-26 16:11:00,
2013-02-26 09:16:00,44.8,16.7,30.05,WNW,287,1.0,1.0,32,0.00,,,0.00,Wunderground v.1.15,2013-02-26 16:16:00,
2013-02-26 09:21:00,44.9,16.0,30.05,WSW,243,0.0,1.0,31,0.00,,,0.00,Wunderground v.1.15,2013-02-26 16:21:00,
2013-02-26 09:26:00,44.9,16.0,30.05,SW,229,3.0,4.0,31,0.00,,,0.00,Wunderground v.1.15,2013-02-26 16:26:00,
2013-02-26 09:31:00,45.3,17.1,30.05,WSW,252,2.0,4.0,32,0.00,,,0.00,Wunderground v.1.15,2013-02-26 16:31:00,
2013-02-26 09:36:00,45.8,16.1,30.05,WSW,257,5.0,5.0,30,0.00,,,0.00,Wunderground v.1.15,2013-02-26 16:36:00,
2013-02-26 09:41:00,45.7,15.2,30.05,NW,319,2.0,3.0,29,0.00,,,0.00,Wunderground v.1.15,2013-02-26 16:41:00,
2013-02-26 09:46:00,45.9,16.2,30.05,NW,306,3.0,4.0,30,0.00,,,0.00,Wunderground v.1.15,2013-02-26 16:46:00,
2013-02-26 09:51:00,46.0,15.5,30.05,West,264,1.0,4.0,29,0.00,,,0.00,Wunderground v.1.15,2013-02-26 16:51:00,
2013-02-26 09:56:00,46.9,17.0,30.05,SSW,194,3.0,4.0,30,0.00,,,0.00,Wunderground v.1.15,2013-02-26 16:56:00,
2013-02-26 10:01:00,47.1,15.6,30.05,WNW,297,3.0,3.0,28,0.00,,,0.00,Wunderground v.1.15,2013-02-26 17:01:00,
2013-02-26 10:06:00,47.3,15.8,30.05,SSW,204,2.0,4.0,28,0.00,,,0.00,Wunderground v.1.15,2013-02-26 17:06:00,
2013-02-26 10:11:00,47.3,15.0,30.05,WSW,248,1.0,4.0,27,0.00,,,0.00,Wunderground v.1.15,2013-02-26 17:11:00,
2013-02-26 10:16:00,47.5,14.3,30.05,WNW,292,6.0,7.0,26,0.00,,,0.00,Wunderground v.1.15,2013-02-26 17:16:00,
2013-02-26 10:21:00,47.3,14.1,30.05,WNW,287,0.0,5.0,26,0.00,,,0.00,Wunderground v.1.15,2013-02-26 17:21:00,
2013-02-26 10:26:00,47.6,14.3,30.05,NNW,336,3.0,6.0,26,0.00,,,0.00,Wunderground v.1.15,2013-02-26 17:26:00,
2013-02-26 10:31:00,47.7,14.4,30.05,NW,326,2.0,5.0,26,0.00,,,0.00,Wunderground v.1.15,2013-02-26 17:31:00,
2013-02-26 10:36:00,48.1,14.8,30.05,NW,319,0.0,5.0,26,0.00,,,0.00,Wunderground v.1.15,2013-02-26 17:36:00,
2013-02-26 10:41:00,48.7,13.5,30.05,NW,304,3.0,3.0,24,0.00,,,0.00,Wunderground v.1.15,2013-02-26 17:41:00,
2013-02-26 10:46:00,48.9,13.6,30.04,WSW,252,0.0,4.0,24,0.00,,,0.00,Wunderground v.1.15,2013-02-26 17:46:00,
2013-02-26 10:51:00,49.0,12.7,30.05,SSW,198,1.0,4.0,23,0.00,,,0.00,Wunderground v.1.15,2013-02-26 17:51:00,
2013-02-26 10:56:00,49.9,12.5,30.04,WNW,283,3.0,5.0,22,0.00,,,0.00,Wunderground v.1.15,2013-02-26 17:56:00,
2013-02-26 11:01:00,50.3,11.8,30.04,NW,307,4.0,5.0,21,0.00,,,0.00,Wunderground v.1.15,2013-02-26 18:01:00,
2013-02-26 11:06:00,51.1,13.5,30.04,NW,310,1.0,5.0,22,0.00,,,0.00,Wunderground v.1.15,2013-02-26 18:06:00,
2013-02-26 11:11:00,51.4,10.4,30.04,NW,309,6.0,6.0,19,0.00,,,0.00,Wunderground v.1.15,2013-02-26 18:11:00,
2013-02-26 11:16:00,51.2,9.1,30.04,West,280,4.0,6.0,18,0.00,,,0.00,Wunderground v.1.15,2013-02-26 18:16:00,
2013-02-26 11:21:00,51.6,8.1,30.04,WNW,290,5.0,5.0,17,0.00,,,0.00,Wunderground v.1.15,2013-02-26 18:21:00,
2013-02-26 11:26:00,52.1,7.2,30.04,NNW,345,5.0,6.0,16,0.00,,,0.00,Wunderground v.1.15,2013-02-26 18:26:00,
2013-02-26 11:31:00,52.8,9.1,30.04,WNW,285,3.0,8.0,17,0.00,,,0.00,Wunderground v.1.15,2013-02-26 18:31:00,
2013-02-26 11:36:00,53.0,6.5,30.04,WNW,287,5.0,8.0,15,0.00,,,0.00,Wunderground v.1.15,2013-02-26 18:36:00,
2013-02-26 11:41:00,52.5,6.1,30.04,NNW,327,2.0,7.0,15,0.00,,,0.00,Wunderground v.1.15,2013-02-26 18:41:00,
2013-02-26 11:46:00,52.8,3.2,30.03,WSW,256,7.0,10.0,13,0.00,,,0.00,Wunderground v.1.15,2013-02-26 18:46:00,
2013-02-26 11:51:00,52.7,1.4,30.03,West,270,6.0,7.0,12,0.00,,,0.00,Wunderground v.1.15,2013-02-26 18:51:00,
2013-02-26 11:56:00,53.0,3.4,30.03,WNW,294,6.0,9.0,13,0.00,,,0.00,Wunderground v.1.15,2013-02-26 18:56:00,
2013-02-26 12:01:00,53.0,5.0,30.04,NNW,333,3.0,8.0,14,0.00,,,0.00,Wunderground v.1.15,2013-02-26 19:01:00,
2013-02-26 12:06:00,53.7,5.5,30.03,WNW,293,4.0,9.0,14,0.00,,,0.00,Wunderground v.1.15,2013-02-26 19:06:00,
2013-02-26 12:11:00,53.6,3.8,30.03,NW,316,5.0,7.0,13,0.00,,,0.00,Wunderground v.1.15,2013-02-26 19:11:00,
2013-02-26 12:16:00,53.7,3.9,30.03,NW,309,3.0,9.0,13,0.00,,,0.00,Wunderground v.1.15,2013-02-26 19:16:00,
2013-02-26 12:21:00,54.3,4.4,30.03,West,281,4.0,8.0,13,0.00,,,0.00,Wunderground v.1.15,2013-02-26 19:21:00,
2013-02-26 12:26:00,54.2,4.3,30.02,WNW,302,2.0,8.0,13,0.00,,,0.00,Wunderground v.1.15,2013-02-26 19:26:00,
2013-02-26 12:31:00,54.3,2.7,30.02,NW,309,5.0,8.0,12,0.00,,,0.00,Wunderground v.1.15,2013-02-26 19:31:00,
2013-02-26 12:36:00,54.7,1.1,30.01,WNW,300,2.0,8.0,11,0.00,,,0.00,Wunderground v.1.15,2013-02-26 19:36:00,
2013-02-26 12:41:00,54.8,3.1,30.01,NW,315,6.0,8.0,12,0.00,,,0.00,Wunderground v.1.15,2013-02-26 19:41:00,
2013-02-26 12:46:00,55.4,3.5,30.01,NW,320,5.0,8.0,12,0.00,,,0.00,Wunderground v.1.15,2013-02-26 19:46:00,
2013-02-26 12:51:00,56.0,4.0,30.01,NW,323,5.0,9.0,12,0.00,,,0.00,Wunderground v.1.15,2013-02-26 19:51:00,
2013-02-26 12:56:00,56.5,2.5,30.00,WNW,286,3.0,9.0,11,0.00,,,0.00,Wunderground v.1.15,2013-02-26 19:56:00,
2013-02-26 13:01:00,56.3,0.3,30.00,NW,326,5.0,7.0,10,0.00,,,0.00,Wunderground v.1.15,2013-02-26 20:01:00,
2013-02-26 13:06:00,56.3,2.4,30.00,WNW,291,6.0,12.0,11,0.00,,,0.00,Wunderground v.1.15,2013-02-26 20:06:00,
2013-02-26 13:11:00,56.5,2.5,30.00,WNW,288,6.0,8.0,11,0.00,,,0.00,Wunderground v.1.15,2013-02-26 20:11:00,
2013-02-26 13:16:00,56.6,2.6,29.99,NW,304,6.0,10.0,11,0.00,,,0.00,Wunderground v.1.15,2013-02-26 20:16:00,
2013-02-26 13:21:00,56.4,2.4,29.99,NW,319,5.0,8.0,11,0.00,,,0.00,Wunderground v.1.15,2013-02-26 20:21:00,
2013-02-26 13:26:00,56.9,2.8,29.99,NNW,328,5.0,12.0,11,0.00,,,0.00,Wunderground v.1.15,2013-02-26 20:26:00,
2013-02-26 13:32:00,56.3,2.4,29.99,NNW,328,6.0,10.0,11,0.00,,,0.00,Wunderground v.1.15,2013-02-26 20:32:00,
2013-02-26 13:37:00,56.0,5.8,29.99,West,259,5.0,14.0,13,0.00,,,0.00,Wunderground v.1.15,2013-02-26 20:37:00,
2013-02-26 13:42:00,56.3,6.0,29.99,WNW,284,9.0,13.0,13,0.00,,,0.00,Wunderground v.1.15,2013-02-26 20:42:00,
2013-02-26 13:47:00,56.7,7.9,29.98,WNW,290,9.0,15.0,14,0.00,,,0.00,Wunderground v.1.15,2013-02-26 20:47:00,
2013-02-26 13:52:00,56.9,8.1,29.98,WNW,297,5.0,12.0,14,0.00,,,0.00,Wunderground v.1.15,2013-02-26 20:52:00,
2013-02-26 13:57:00,57.0,8.2,29.98,West,277,8.0,14.0,14,0.00,,,0.00,Wunderground v.1.15,2013-02-26 20:57:00,
2013-02-26 14:02:00,57.0,8.2,29.98,West,278,15.0,16.0,14,0.00,,,0.00,Wunderground v.1.15,2013-02-26 21:02:00,
2013-02-26 14:07:00,57.0,9.7,29.98,NW,311,7.0,16.0,15,0.00,,,0.00,Wunderground v.1.15,2013-02-26 21:07:00,
2013-02-26 14:12:00,57.5,8.6,29.98,WNW,293,9.0,15.0,14,0.00,,,0.00,Wunderground v.1.15,2013-02-26 21:12:00,
2013-02-26 14:17:00,57.6,10.2,29.98,West,260,6.0,15.0,15,0.00,,,0.00,Wunderground v.1.15,2013-02-26 21:17:00,
2013-02-26 14:22:00,57.8,8.8,29.98,WNW,291,14.0,17.0,14,0.00,,,0.00,Wunderground v.1.15,2013-02-26 21:22:00,
2013-02-26 14:27:00,57.4,10.0,29.98,WNW,297,13.0,17.0,15,0.00,,,0.00,Wunderground v.1.15,2013-02-26 21:27:00,
2013-02-26 14:32:00,57.4,10.0,29.98,West,281,10.0,16.0,15,0.00,,,0.00,Wunderground v.1.15,2013-02-26 21:32:00,
2013-02-26 14:37:00,57.7,8.7,29.97,WNW,296,12.0,16.0,14,0.00,,,0.00,Wunderground v.1.15,2013-02-26 21:37:00,
2013-02-26 14:42:00,57.6,8.7,29.97,NW,309,12.0,17.0,14,0.00,,,0.00,Wunderground v.1.15,2013-02-26 21:42:00,
2013-02-26 14:47:00,57.2,8.3,29.97,WNW,295,11.0,18.0,14,0.00,,,0.00,Wunderground v.1.15,2013-02-26 21:47:00,
2013-02-26 14:52:00,57.0,8.2,29.98,WNW,294,10.0,16.0,14,0.00,,,0.00,Wunderground v.1.15,2013-02-26 21:52:00,
2013-02-26 14:57:00,56.9,8.1,29.98,NW,304,9.0,17.0,14,0.00,,,0.00,Wunderground v.1.15,2013-02-26 21:57:00,
2013-02-26 15:02:00,56.8,8.0,29.98,WNW,301,12.0,16.0,14,0.00,,,0.00,Wunderground v.1.15,2013-02-26 22:02:00,
2013-02-26 15:07:00,56.4,9.2,29.98,WNW,293,12.0,20.0,15,0.00,,,0.00,Wunderground v.1.15,2013-02-26 22:07:00,
2013-02-26 15:12:00,56.8,9.6,29.98,West,274,11.0,15.0,15,0.00,,,0.00,Wunderground v.1.15,2013-02-26 22:12:00,
2013-02-26 15:17:00,56.6,9.4,29.98,WNW,286,11.0,16.0,15,0.00,,,0.00,Wunderground v.1.15,2013-02-26 22:17:00,
2013-02-26 15:22:00,56.8,11.0,29.98,WNW,288,13.0,14.0,16,0.00,,,0.00,Wunderground v.1.15,2013-02-26 22:22:00,
2013-02-26 15:27:00,56.5,10.8,29.98,WSW,257,14.0,16.0,16,0.00,,,0.00,Wunderground v.1.15,2013-02-26 22:27:00,
2013-02-26 15:32:00,56.5,10.8,29.98,WNW,292,8.0,14.0,16,0.00,,,0.00,Wunderground v.1.15,2013-02-26 22:32:00,
2013-02-26 15:37:00,56.5,10.8,29.98,WNW,282,9.0,14.0,16,0.00,,,0.00,Wunderground v.1.15,2013-02-26 22:37:00,
2013-02-26 15:42:00,56.2,10.5,29.98,West,276,6.0,11.0,16,0.00,,,0.00,Wunderground v.1.15,2013-02-26 22:42:00,
2013-02-26 15:47:00,56.1,10.4,29.98,WNW,286,8.0,14.0,16,0.00,,,0.00,Wunderground v.1.15,2013-02-26 22:47:00,
2013-02-26 15:52:00,56.5,10.8,29.98,WNW,300,9.0,15.0,16,0.00,,,0.00,Wunderground v.1.15,2013-02-26 22:52:00,
2013-02-26 15:57:00,56.2,10.5,29.98,WNW,284,10.0,16.0,16,0.00,,,0.00,Wunderground v.1.15,2013-02-26 22:57:00,
2013-02-26 16:02:00,56.1,10.4,29.98,NW,304,11.0,14.0,16,0.00,,,0.00,Wunderground v.1.15,2013-02-26 23:02:00,
2013-02-26 16:07:00,56.2,10.5,29.98,West,264,10.0,18.0,16,0.00,,,0.00,Wunderground v.1.15,2013-02-26 23:07:00,
2013-02-26 16:12:00,56.4,10.7,29.98,NW,321,8.0,13.0,16,0.00,,,0.00,Wunderground v.1.15,2013-02-26 23:12:00,
2013-02-26 16:17:00,56.2,10.5,29.98,West,262,10.0,13.0,16,0.00,,,0.00,Wunderground v.1.15,2013-02-26 23:17:00,
2013-02-26 16:22:00,55.8,11.6,29.98,WSW,254,7.0,12.0,17,0.00,,,0.00,Wunderground v.1.15,2013-02-26 23:22:00,
2013-02-26 16:27:00,55.6,10.0,29.98,West,275,8.0,15.0,16,0.00,,,0.00,Wunderground v.1.15,2013-02-26 23:27:00,
2013-02-26 16:32:00,55.7,10.1,29.98,WSW,253,5.0,12.0,16,0.00,,,0.00,Wunderground v.1.15,2013-02-26 23:32:00,
2013-02-26 16:37:00,55.8,10.2,29.98,West,271,7.0,13.0,16,0.00,,,0.00,Wunderground v.1.15,2013-02-26 23:37:00,
2013-02-26 16:42:00,55.7,10.1,29.98,NW,307,9.0,12.0,16,0.00,,,0.00,Wunderground v.1.15,2013-02-26 23:42:00,
2013-02-26 16:47:00,55.6,11.4,29.98,WNW,288,8.0,14.0,17,0.00,,,0.00,Wunderground v.1.15,2013-02-26 23:47:00,
2013-02-26 16:52:00,55.3,11.2,29.98,West,263,13.0,14.0,17,0.00,,,0.00,Wunderground v.1.15,2013-02-26 23:52:00,
2013-02-26 16:57:00,55.1,11.0,29.98,West,271,13.0,15.0,17,0.00,,,0.00,Wunderground v.1.15,2013-02-26 23:57:00,
2013-02-26 17:02:00,54.8,10.7,29.98,WNW,288,8.0,16.0,17,0.00,,,0.00,Wunderground v.1.15,2013-02-27 00:02:00,
2013-02-26 17:07:00,54.5,10.5,29.98,West,264,6.0,16.0,17,0.00,,,0.00,Wunderground v.1.15,2013-02-27 00:07:00,
2013-02-26 17:12:00,54.4,10.4,29.98,West,271,11.0,14.0,17,0.00,,,0.00,Wunderground v.1.15,2013-02-27 00:12:00,
2013-02-26 17:17:00,54.3,11.6,29.98,WNW,293,8.0,14.0,18,0.00,,,0.00,Wunderground v.1.15,2013-02-27 00:17:00,
2013-02-26 17:22:00,54.0,11.4,29.98,West,278,5.0,10.0,18,0.00,,,0.00,Wunderground v.1.15,2013-02-27 00:22:00,
2013-02-26 17:27:00,53.9,11.3,29.98,NW,312,9.0,12.0,18,0.00,,,0.00,Wunderground v.1.15,2013-02-27 00:27:00,
2013-02-26 17:32:00,53.6,11.0,29.98,NW,306,7.0,11.0,18,0.00,,,0.00,Wunderground v.1.15,2013-02-27 00:32:00,
2013-02-26 17:37:00,53.3,12.0,29.98,WNW,283,10.0,11.0,19,0.00,,,0.00,Wunderground v.1.15,2013-02-27 00:37:00,
2013-02-26 17:42:00,52.8,11.6,29.98,WNW,285,6.0,11.0,19,0.00,,,0.00,Wunderground v.1.15,2013-02-27 00:42:00,
2013-02-26 17:47:00,52.4,11.3,29.99,West,276,8.0,11.0,19,0.00,,,0.00,Wunderground v.1.15,2013-02-27 00:47:00,
2013-02-26 17:52:00,51.9,9.6,29.99,West,280,8.0,12.0,18,0.00,,,0.00,Wunderground v.1.15,2013-02-27 00:52:00,
2013-02-26 17:57:00,51.4,10.4,29.99,West,277,4.0,12.0,19,0.00,,,0.00,Wunderground v.1.15,2013-02-27 00:57:00,
2013-02-26 18:02:00,50.8,9.9,29.99,WNW,289,8.0,9.0,19,0.00,,,0.00,Wunderground v.1.15,2013-02-27 01:02:00,
2013-02-26 18:07:00,50.3,10.7,29.99,West,278,7.0,12.0,20,0.00,,,0.00,Wunderground v.1.15,2013-02-27 01:07:00,
2013-02-26 18:12:00,49.5,10.0,29.99,WNW,302,6.0,8.0,20,0.00,,,0.00,Wunderground v.1.15,2013-02-27 01:12:00,
2013-02-26 18:17:00,48.8,10.5,29.99,WNW,293,8.0,10.0,21,0.00,,,0.00,Wunderground v.1.15,2013-02-27 01:17:00,
2013-02-26 18:22:00,48.1,9.9,29.99,West,281,4.0,7.0,21,0.00,,,0.00,Wunderground v.1.15,2013-02-27 01:22:00,
2013-02-26 18:27:00,47.6,10.6,29.99,WNW,294,5.0,11.0,22,0.00,,,0.00,Wunderground v.1.15,2013-02-27 01:27:00,
2013-02-26 18:32:00,47.2,10.2,30.00,WNW,297,8.0,13.0,22,0.00,,,0.00,Wunderground v.1.15,2013-02-27 01:32:00,
2013-02-26 18:37:00,46.8,10.9,30.00,NW,315,6.0,13.0,23,0.00,,,0.00,Wunderground v.1.15,2013-02-27 01:37:00,
2013-02-26 18:42:00,46.4,10.5,30.00,WNW,283,6.0,7.0,23,0.00,,,0.00,Wunderground v.1.15,2013-02-27 01:42:00,
2013-02-26 18:47:00,46.1,11.2,30.00,WNW,288,4.0,8.0,24,0.00,,,0.00,Wunderground v.1.15,2013-02-27 01:47:00,
2013-02-26 18:52:00,45.9,11.1,30.00,WNW,288,4.0,9.0,24,0.00,,,0.00,Wunderground v.1.15,2013-02-27 01:52:00,
2013-02-26 18:57:00,45.6,11.7,30.00,WNW,300,4.0,9.0,25,0.00,,,0.00,Wunderground v.1.15,2013-02-27 01:57:00,
2013-02-26 19:02:00,45.4,11.6,30.01,WNW,286,5.0,6.0,25,0.00,,,0.00,Wunderground v.1.15,2013-02-27 02:02:00,
2013-02-26 19:07:00,45.2,11.4,30.01,WNW,302,3.0,7.0,25,0.00,,,0.00,Wunderground v.1.15,2013-02-27 02:07:00,
2013-02-26 19:12:00,44.9,12.0,30.02,NW,307,5.0,5.0,26,0.00,,,0.00,Wunderground v.1.15,2013-02-27 02:12:00,
2013-02-26 19:17:00,44.7,11.9,30.02,NW,308,3.0,5.0,26,0.00,,,0.00,Wunderground v.1.15,2013-02-27 02:17:00,
2013-02-26 19:22:00,44.0,12.1,30.02,NW,326,2.0,4.0,27,0.00,,,0.00,Wunderground v.1.15,2013-02-27 02:22:00,
2013-02-26 19:27:00,43.5,12.5,30.02,NW,316,1.0,4.0,28,0.00,,,0.00,Wunderground v.1.15,2013-02-27 02:27:00,
2013-02-26 19:32:00,42.9,12.8,30.02,NW,311,3.0,3.0,29,0.00,,,0.00,Wunderground v.1.15,2013-02-27 02:32:00,
2013-02-26 19:37:00,42.7,12.6,30.02,NW,321,1.0,4.0,29,0.00,,,0.00,Wunderground v.1.15,2013-02-27 02:37:00,
2013-02-26 19:42:00,42.1,12.8,30.02,NNW,329,2.0,3.0,30,0.00,,,0.00,Wunderground v.1.15,2013-02-27 02:42:00,
2013-02-26 19:47:00,41.5,13.1,30.02,NNW,335,1.0,3.0,31,0.00,,,0.00,Wunderground v.1.15,2013-02-27 02:47:00,
2013-02-26 19:52:00,40.8,13.2,30.03,North,6,1.0,2.0,32,0.00,,,0.00,Wunderground v.1.15,2013-02-27 02:52:00,
2013-02-26 19:57:00,40.4,12.8,30.03,NNW,340,3.0,3.0,32,0.00,,,0.00,Wunderground v.1.15,2013-02-27 02:57:00,
2013-02-26 20:02:00,40.4,13.5,30.03,North,5,2.0,2.0,33,0.00,,,0.00,Wunderground v.1.15,2013-02-27 03:02:00,
2013-02-26 20:07:00,40.2,13.3,30.04,North,359,1.0,3.0,33,0.00,,,0.00,Wunderground v.1.15,2013-02-27 03:07:00,
2013-02-26 20:12:00,39.8,13.7,30.04,North,3,1.0,2.0,34,0.00,,,0.00,Wunderground v.1.15,2013-02-27 03:12:00,
2013-02-26 20:17:00,39.8,14.3,30.04,NNE,30,1.0,2.0,35,0.00,,,0.00,Wunderground v.1.15,2013-02-27 03:17:00,
2013-02-26 20:22:00,39.3,14.5,30.04,ENE,59,3.0,3.0,36,0.00,,,0.00,Wunderground v.1.15,2013-02-27 03:22:00,
2013-02-26 20:27:00,37.4,15.2,30.04,ENE,64,2.0,3.0,40,0.00,,,0.00,Wunderground v.1.15,2013-02-27 03:27:00,
2013-02-26 20:32:00,37.2,15.1,30.04,ENE,58,1.0,2.0,40,0.00,,,0.00,Wunderground v.1.15,2013-02-27 03:32:00,
2013-02-26 20:37:00,37.7,14.9,30.04,NE,44,1.0,2.0,39,0.00,,,0.00,Wunderground v.1.15,2013-02-27 03:37:00,
2013-02-26 20:42:00,38.1,14.7,30.05,NNE,17,0.0,3.0,38,0.00,,,0.00,Wunderground v.1.15,2013-02-27 03:42:00,
2013-02-26 20:47:00,38.4,14.4,30.05,NNE,27,1.0,3.0,37,0.00,,,0.00,Wunderground v.1.15,2013-02-27 03:47:00,
2013-02-26 20:52:00,38.5,15.1,30.06,NNE,27,0.0,1.0,38,0.00,,,0.00,Wunderground v.1.15,2013-02-27 03:52:00,
2013-02-26 20:57:00,37.6,14.8,30.06,NE,44,0.0,1.0,39,0.00,,,0.00,Wunderground v.1.15,2013-02-27 03:57:00,
2013-02-26 21:02:00,36.9,14.8,30.06,NE,43,0.0,0.0,40,0.00,,,0.00,Wunderground v.1.15,2013-02-27 04:02:00,
2013-02-26 21:08:00,37.0,14.9,30.06,NE,43,0.0,0.0,40,0.00,,,0.00,Wunderground v.1.15,2013-02-27 04:08:00,
2013-02-26 21:13:00,37.6,14.8,30.07,NE,43,0.0,0.0,39,0.00,,,0.00,Wunderground v.1.15,2013-02-27 04:13:00,
2013-02-26 21:18:00,37.9,15.1,30.07,NE,43,0.0,0.0,39,0.00,,,0.00,Wunderground v.1.15,2013-02-27 04:18:00,
2013-02-26 21:23:00,37.7,14.9,30.07,NE,43,0.0,0.0,39,0.00,,,0.00,Wunderground v.1.15,2013-02-27 04:23:00,
2013-02-26 21:28:00,37.5,14.8,30.08,NE,43,0.0,0.0,39,0.00,,,0.00,Wunderground v.1.15,2013-02-27 04:28:00,
2013-02-26 21:33:00,37.1,15.0,30.08,NE,43,0.0,0.0,40,0.00,,,0.00,Wunderground v.1.15,2013-02-27 04:33:00,
2013-02-26 21:38:00,37.3,15.2,30.09,NE,47,0.0,0.0,40,0.00,,,0.00,Wunderground v.1.15,2013-02-27 04:38:00,
2013-02-26 21:43:00,35.9,16.1,30.09,ENE,69,0.0,0.0,44,0.00,,,0.00,Wunderground v.1.15,2013-02-27 04:43:00,
2013-02-26 21:48:00,35.4,15.1,30.09,ENE,60,2.0,3.0,43,0.00,,,0.00,Wunderground v.1.15,2013-02-27 04:48:00,
2013-02-26 21:53:00,36.1,15.2,30.09,NNE,23,2.0,3.0,42,0.00,,,0.00,Wunderground v.1.15,2013-02-27 04:53:00,
2013-02-26 21:58:00,36.1,15.7,30.09,NW,324,1.0,3.0,43,0.00,,,0.00,Wunderground v.1.15,2013-02-27 04:58:00,
2013-02-26 22:00:00,36.4,15.5,30.10,NW,324,2.0,2.0,42,0.00,,,0.00,Wunderground v.1.15,2013-02-27 05:00:00,
2013-02-26 22:01:00,36.6,15.6,30.10,NNW,333,3.0,3.0,42,0.00,,,0.00,Wunderground v.1.15,2013-02-27 05:01:00,
2013-02-26 22:06:00,37.0,15.5,30.10,NNE,13,3.0,3.0,41,0.00,,,0.00,Wunderground v.1.15,2013-02-27 05:06:00,
2013-02-26 22:11:00,36.6,15.1,30.10,North,352,2.0,2.0,41,0.00,,,0.00,Wunderground v.1.15,2013-02-27 05:11:00,
2013-02-26 22:16:00,36.7,15.2,30.10,NNE,15,1.0,2.0,41,0.00,,,0.00,Wunderground v.1.15,2013-02-27 05:16:00,
2013-02-26 22:21:00,36.5,15.0,30.10,NNE,13,1.0,2.0,41,0.00,,,0.00,Wunderground v.1.15,2013-02-27 05:21:00,
2013-02-26 22:26:00,36.4,14.9,30.10,North,359,0.0,2.0,41,0.00,,,0.00,Wunderground v.1.15,2013-02-27 05:26:00,
2013-02-26 22:31:00,36.3,14.8,30.10,North,358,0.0,1.0,41,0.00,,,0.00,Wunderground v.1.15,2013-02-27 05:31:00,
2013-02-26 22:36:00,36.0,14.5,30.10,NNE,25,2.0,2.0,41,0.00,,,0.00,Wunderground v.1.15,2013-02-27 05:36:00,
2013-02-26 22:41:00,35.1,15.3,30.10,NNE,32,2.0,2.0,44,0.00,,,0.00,Wunderground v.1.15,2013-02-27 05:41:00,
2013-02-26 22:46:00,34.9,15.2,30.10,NNE,32,2.0,3.0,44,0.00,,,0.00,Wunderground v.1.15,2013-02-27 05:46:00,
2013-02-26 22:51:00,34.8,15.1,30.11,NE,40,1.0,2.0,44,0.00,,,0.00,Wunderground v.1.15,2013-02-27 05:51:00,
2013-02-26 22:56:00,35.1,15.3,30.11,NE,38,1.0,2.0,44,0.00,,,0.00,Wunderground v.1.15,2013-02-27 05:56:00,
2013-02-26 23:01:00,35.0,15.3,30.11,NE,39,2.0,2.0,44,0.00,,,0.00,Wunderground v.1.15,2013-02-27 06:01:00,
2013-02-26 23:06:00,35.0,15.3,30.11,NE,37,2.0,3.0,44,0.00,,,0.00,Wunderground v.1.15,2013-02-27 06:06:00,
2013-02-26 23:11:00,34.4,15.2,30.12,NE,37,2.0,2.0,45,0.00,,,0.00,Wunderground v.1.15,2013-02-27 06:11:00,
2013-02-26 23:16:00,34.3,15.1,30.12,NE,37,1.0,2.0,45,0.00,,,0.00,Wunderground v.1.15,2013-02-27 06:16:00,
2013-02-26 23:21:00,33.9,15.3,30.12,NE,37,1.0,2.0,46,0.00,,,0.00,Wunderground v.1.15,2013-02-27 06:21:00,
2013-02-26 23:26:00,33.7,15.6,30.13,NE,37,2.0,2.0,47,0.00,,,0.00,Wunderground v.1.15,2013-02-27 06:26:00,
2013-02-26 23:31:00,32.9,15.3,30.13,NE,38,2.0,2.0,48,0.00,,,0.00,Wunderground v.1.15,2013-02-27 06:31:00,
2013-02-26 23:36:00,32.7,15.6,30.13,NE,37,2.0,3.0,49,0.00,,,0.00,Wunderground v.1.15,2013-02-27 06:36:00,
2013-02-26 23:41:00,33.1,15.0,30.13,NE,35,1.0,2.0,47,0.00,,,0.00,Wunderground v.1.15,2013-02-27 06:41:00,
2013-02-26 23:46:00,33.6,15.5,30.13,NE,35,2.0,2.0,47,0.00,,,0.00,Wunderground v.1.15,2013-02-27 06:46:00,
2013-02-26 23:51:00,34.0,15.4,30.12,NE,35,2.0,2.0,46,0.00,,,0.00,Wunderground v.1.15,2013-02-27 06:51:00,
2013-02-26 23:56:00,34.6,15.4,30.13,North,352,1.0,2.0,45,0.00,,,0.00,Wunderground v.1.15,2013-02-27 06:56:00,